EN

Hourly Weather Bolshoe Nikolskoe

Today, 31 October, Saturday

Time Temperature Precipitation Wind Pressure Humidity
00:00 +6°C° 0.2 mm 2 mps 749 mmHg 92%
01:00 +6°C° 0.2 mm 2 mps 749 mmHg 93%
02:00 +6°C° 0.2 mm 2 mps 748 mmHg 94%
03:00 +6°C° 0 mm 2 mps 748 mmHg 96%
04:00 +6°C° 0.1 mm 2 mps 748 mmHg 96%
05:00 +6°C° 0.1 mm 2 mps 748 mmHg 95%
06:00 +7°C° 0.1 mm 2 mps 748 mmHg 95%
07:00 +7°C° 0.1 mm 2 mps 748 mmHg 94%
08:00 +7°C° 0.1 mm 2 mps 748 mmHg 94%
09:00 +7°C° 0 mm 2 mps 749 mmHg 92%
10:00 +8°C° 0.1 mm 2 mps 749 mmHg 90%
11:00 +8°C° 0.1 mm 2 mps 749 mmHg 87%
12:00 +9°C° 0.1 mm 2 mps 749 mmHg 85%
13:00 +9°C° 0 mm 2 mps 749 mmHg 84%
14:00 +9°C° 0 mm 2 mps 749 mmHg 83%
15:00 +9°C° 0 mm 3 mps 749 mmHg 82%
16:00 +9°C° 0 mm 3 mps 750 mmHg 83%
17:00 +9°C° 0 mm 3 mps 750 mmHg 85%
18:00 +8°C° 0 mm 3 mps 750 mmHg 86%
19:00 +8°C° 0 mm 3 mps 750 mmHg 87%
20:00 +7°C° 0 mm 3 mps 750 mmHg 88%
21:00 +6°C° 0 mm 4 mps 750 mmHg 89%
22:00 +6°C° 0 mm 4 mps 750 mmHg 90%
23:00 +6°C° 0 mm 4 mps 751 mmHg 90%

Tomorrow, 1 November, Sunday

Time Temperature Precipitation Wind Pressure Humidity
00:00 +6°C° 0 mm 4 mps 751 mmHg 91%
01:00 +5°C° 0 mm 4 mps 751 mmHg 91%
02:00 +5°C° 0 mm 4 mps 751 mmHg 90%
03:00 +5°C° 0 mm 5 mps 751 mmHg 90%
04:00 +5°C° 0.3 mm 5 mps 751 mmHg 90%
05:00 +5°C° 0.3 mm 5 mps 751 mmHg 90%
06:00 +6°C° 0.3 mm 5 mps 751 mmHg 90%
07:00 +6°C° 0.7 mm 5 mps 751 mmHg 89%
08:00 +6°C° 0.7 mm 5 mps 751 mmHg 89%
09:00 +6°C° 0.7 mm 5 mps 751 mmHg 88%
10:00 +6°C° 0.8 mm 5 mps 751 mmHg 88%
11:00 +6°C° 0.8 mm 5 mps 751 mmHg 87%
12:00 +6°C° 0.8 mm 5 mps 752 mmHg 87%
13:00 +6°C° 0.2 mm 5 mps 752 mmHg 87%
14:00 +6°C° 0.2 mm 5 mps 752 mmHg 88%
15:00 +6°C° 0.2 mm 5 mps 752 mmHg 89%
16:00 +6°C° 0.1 mm 4 mps 752 mmHg 89%
17:00 +6°C° 0.1 mm 4 mps 752 mmHg 90%
18:00 +6°C° 0.1 mm 4 mps 752 mmHg 91%
19:00 +7°C° 0 mm 3 mps 752 mmHg 90%
20:00 +7°C° 0 mm 3 mps 752 mmHg 90%
21:00 +7°C° 0 mm 3 mps 752 mmHg 90%
22:00 +7°C° 0 mm 3 mps 752 mmHg 90%
23:00 +7°C° 0 mm 3 mps 752 mmHg 90%

Day after tomorrow, 2 November, Monday

Time Temperature Precipitation Wind Pressure Humidity
00:00 +7°C° 0 mm 3 mps 752 mmHg 91%
01:00 +5°C° 0 mm 3 mps 752 mmHg 92%
02:00 +5°C° 0 mm 3 mps 752 mmHg 93%
03:00 +5°C° 0 mm 3 mps 752 mmHg 95%
04:00 +5°C° 0 mm 3 mps 752 mmHg 95%
05:00 +5°C° 0 mm 3 mps 752 mmHg 95%
06:00 +4°C° 0 mm 3 mps 752 mmHg 95%
07:00 +5°C° 0 mm 3 mps 752 mmHg 92%
08:00 +5°C° 0 mm 4 mps 752 mmHg 90%
09:00 +5°C° 0 mm 4 mps 752 mmHg 87%
10:00 +6°C° 0 mm 4 mps 752 mmHg 83%
11:00 +6°C° 0 mm 4 mps 752 mmHg 79%
12:00 +7°C° 0 mm 4 mps 752 mmHg 76%
13:00 +7°C° 0.1 mm 4 mps 752 mmHg 78%
14:00 +7°C° 0.1 mm 4 mps 752 mmHg 80%
15:00 +7°C° 0.1 mm 3 mps 751 mmHg 82%
16:00 +7°C° 0.1 mm 3 mps 752 mmHg 84%
17:00 +7°C° 0.1 mm 3 mps 752 mmHg 86%
18:00 +7°C° 0.1 mm 3 mps 752 mmHg 87%
19:00 +5°C° 0 mm 3 mps 752 mmHg 88%
20:00 +5°C° 0 mm 3 mps 752 mmHg 89%
21:00 +5°C° 0 mm 3 mps 752 mmHg 90%
22:00 +5°C° 0 mm 3 mps 752 mmHg 90%
23:00 +5°C° 0 mm 3 mps 752 mmHg 90%

3 November, Tuesday

Time Temperature Precipitation Wind Pressure Humidity
00:00 +4°C° 0 mm 3 mps 752 mmHg 90%
01:00 +4°C° 0 mm 3 mps 752 mmHg 89%
02:00 +4°C° 0 mm 3 mps 753 mmHg 88%
03:00 +4°C° 0 mm 3 mps 753 mmHg 87%
04:00 +4°C° 0 mm 3 mps 753 mmHg 87%
05:00 +4°C° 0 mm 3 mps 753 mmHg 86%
06:00 +4°C° 0 mm 3 mps 753 mmHg 86%
07:00 +5°C° 0 mm 3 mps 753 mmHg 84%
08:00 +5°C° 0 mm 3 mps 753 mmHg 83%
09:00 +5°C° 0 mm 3 mps 754 mmHg 81%
10:00 +7°C° 0 mm 3 mps 754 mmHg 80%
11:00 +8°C° 0 mm 3 mps 754 mmHg 79%
12:00 +9°C° 0 mm 3 mps 754 mmHg 78%
13:00 +9°C° 0 mm 3 mps 754 mmHg 78%
14:00 +9°C° 0 mm 2 mps 754 mmHg 79%
15:00 +9°C° 0 mm 2 mps 754 mmHg 79%
16:00 +9°C° 0 mm 2 mps 754 mmHg 83%
17:00 +8°C° 0 mm 2 mps 754 mmHg 86%
18:00 +7°C° 0 mm 2 mps 754 mmHg 89%
19:00 +7°C° 0 mm 2 mps 755 mmHg 90%
20:00 +7°C° 0 mm 2 mps 755 mmHg 91%
21:00 +7°C° 0 mm 2 mps 755 mmHg 91%
22:00 +6°C° 0 mm 2 mps 755 mmHg 91%
23:00 +7°C° 0 mm 1 mps 755 mmHg 92%

4 November, Wednesday

Time Temperature Precipitation Wind Pressure Humidity
00:00 +7°C° 0 mm 1 mps 756 mmHg 92%
01:00 +7°C° 0 mm 1 mps 756 mmHg 92%
02:00 +6°C° 0 mm 2 mps 756 mmHg 93%
03:00 +6°C° 0 mm 2 mps 756 mmHg 93%
04:00 +6°C° 0 mm 2 mps 756 mmHg 93%
05:00 +6°C° 0 mm 2 mps 756 mmHg 94%
06:00 +6°C° 0 mm 2 mps 756 mmHg 94%
07:00 +6°C° 0 mm 2 mps 757 mmHg 93%
08:00 +6°C° 0 mm 2 mps 757 mmHg 93%
09:00 +7°C° 0 mm 2 mps 757 mmHg 92%
10:00 +9°C° 0 mm 1 mps 757 mmHg 88%
11:00 +10°C° 0 mm 1 mps 757 mmHg 83%
12:00 +11°C° 0 mm 1 mps 757 mmHg 79%
13:00 +11°C° 0 mm 1 mps 757 mmHg 79%
14:00 +12°C° 0 mm 1 mps 757 mmHg 78%
15:00 +11°C° 0 mm 0 mps 757 mmHg 78%
16:00 +10°C° 0 mm 0 mps 757 mmHg 82%
17:00 +9°C° 0 mm 0 mps 757 mmHg 86%
18:00 +8°C° 0 mm 0 mps 757 mmHg 89%
19:00 +9°C° 0 mm 1 mps 757 mmHg 90%
20:00 +9°C° 0 mm 1 mps 758 mmHg 90%
21:00 +8°C° 0 mm 1 mps 758 mmHg 91%
22:00 +8°C° 0 mm 1 mps 758 mmHg 91%
23:00 +8°C° 0 mm 1 mps 758 mmHg 91%

5 November, Thursday

Time Temperature Precipitation Wind Pressure Humidity
00:00 +8°C° 0 mm 1 mps 758 mmHg 91%
01:00 +8°C° 0 mm 1 mps 758 mmHg 92%
02:00 +8°C° 0 mm 1 mps 758 mmHg 92%
03:00 +7°C° 0 mm 1 mps 758 mmHg 93%
04:00 +7°C° 0 mm 1 mps 758 mmHg 93%
05:00 +7°C° 0 mm 1 mps 757 mmHg 93%
06:00 +7°C° 0 mm 1 mps 757 mmHg 94%
07:00 +7°C° 0 mm 1 mps 757 mmHg 93%
08:00 +8°C° 0 mm 1 mps 757 mmHg 93%
09:00 +8°C° 0 mm 1 mps 757 mmHg 92%
10:00 +8°C° 0 mm 2 mps 757 mmHg 89%
11:00 +9°C° 0 mm 2 mps 757 mmHg 86%
12:00 +10°C° 0 mm 2 mps 757 mmHg 82%
13:00 +10°C° 0 mm 2 mps 757 mmHg 81%
14:00 +10°C° 0 mm 2 mps 757 mmHg 80%
15:00 +10°C° 0 mm 2 mps 756 mmHg 78%
16:00 +9°C° 0 mm 2 mps 756 mmHg 82%
17:00 +8°C° 0 mm 2 mps 756 mmHg 86%
18:00 +8°C° 0 mm 2 mps 756 mmHg 90%
19:00 +7°C° 0 mm 2 mps 756 mmHg 91%
20:00 +7°C° 0 mm 2 mps 756 mmHg 91%
21:00 +7°C° 0 mm 2 mps 756 mmHg 92%
22:00 +6°C° 0 mm 2 mps 756 mmHg 93%
23:00 +6°C° 0 mm 2 mps 756 mmHg 93%
Show more